Regional Weather Roundup
Issued by NWS

Home | Current Version | Previous Version | Text Only | Print | Product List | Glossary On
Versions: 1 2 3 4 5 6 7 8 9 10 11 12 13 14 15 16 17 18 19 20 21 22 23 24 25 26 27 28 29 30 31 32 33 34 35 36 37 38 39 40 41 42 43 44 45 46 47 48 49 50
000
ASPQ40 PGUM 240512
RWRPQ
WEATHER ROUNDUP FOR THE MARIANAS AND MICRONESIA
NATIONAL WEATHER SERVICE TIYAN GU
300 PM CHST SAT JUN 24 2017

GUZ001>004-240600-
MARIANA ISLANDS-

CITY           SKY/WX    TMP DP  RH WIND       PRES   REMARKS
GUAM AIRPORT   MOSUNNY   90  77  66 E9        29.79F HX 102
ANDERSEN AFB   MOSUNNY   86  77  74 E8        29.81F HX  97
ROTA AIRPORT   PTSUNNY   86  73  66 E12       29.80F HX  93
TINIAN AP      MOSUNNY   86  75  70 E12       29.78F HX  95
SAIPAN AP      MOSUNNY   90  77  66 E13       29.79F HX 102

$$

PMZ161-240600-
REPUBLIC OF PALAU-

CITY           SKY/WX    TMP DP  RH WIND       PRES   REMARKS
KOROR AP       PTSUNNY   86  75  70 S5        29.77F HX  95
KOROR WSO      PTSUNNY   88  75  66 S8        29.77F HX  97

$$

PMZ171>174-240600-
FEDERATED STATES OF MICRONESIA-

CITY           SKY/WX    TMP DP  RH WIND       PRES   REMARKS
YAP AIRPORT    PTSUNNY   86  79  79 CALM      29.74F HX  99
CHUUK AP       MOSUNNY   88  84  89 VRB6      29.73F HX 112
POHNPEI AP     CLOUDY    88  77  70 NE12      29.72F HX 100
POHNPEI WSO    CLOUDY    88  79  74 NE7       29.75F HX 102
KOSRAE AP      NOT AVBL

$$

PMZ181-240600-
REPUBLIC OF THE MARSHALL ISLANDS-

CITY           SKY/WX    TMP DP  RH WIND       PRES   REMARKS
KWAJALEIN AP   MOSUNNY   88  75  66 E16       29.75S HX  97
MAJURO AP      NOT AVBL
MAJURO WSO     CLOUDY    84  77  79 NE12      29.73R HX  94

$$




USA.gov is the U.S. government's official web portal to all federal, state and local government web resources and services.